Kenai, AK

12:15 PM AKST on December 08, 2019 (GMT -0900)
Kenai Municipal

Weather History for PAEN - October, 2019

Change the Weather History Date:

Wednesday, October 23, 2019

  Actual Average Record
Temperature  
Mean Temperature 46 °F -  
Max Temperature 51 °F 38 °F 53 °F (1957)
Min Temperature 41 °F 22 °F -5 °F (1966)
Degree Days  
Heating Degree Days 20    
Moisture  
Dew Point 36 °F    
Average Humidity 71    
Maximum Humidity 86    
Minimum Humidity 57    
Precipitation  
Precipitation 0.07 in - - ()
Sea Level Pressure  
Sea Level Pressure 29.18 in    
Wind  
Wind Speed 13 mph (ENE)    
Max Wind Speed 21 mph    
Max Gust Speed 28 mph    
Visibility 10 miles    
Events Rain    
Averages and records for this station are not official NWS values.
T = Trace of Precipitation, MM = Missing Value Source: NWS Daily Summary

Daily Weather History Graph

Daily Weather History Graph

Search for Another Location

Airport or City:

Astronomy

Oct. 23, 2019 Rise Set
Actual Time 9:06 AM AKDT 6:31 PM AKDT
Civil Twilight 8:22 AM AKDT 7:15 PM AKDT
Nautical Twilight 7:32 AM AKDT 8:04 PM AKDT
Astronomical Twilight 6:43 AM AKDT 8:53 PM AKDT
Moon 1:41 AM AKDT (10/23) 6:07 PM AKDT (10/23)
Length of Visible Light 10h 53m
Length of Day
9h 25m
Waning Crescent, 25% of the Moon is Illuminated
Oct 23
Waning Crescent
Oct 27
New
Nov 4
First Quarter
Nov 12
Full
Nov 19
Last Quarter

Hourly Weather History & Observations

Time (AKDT) Temp. Windchill Dew Point Humidity Pressure Visibility Wind Dir Wind Speed Gust Speed Precip Events Conditions
12:53 AM 42.1 °F 35.7 °F 34.0 °F 73% 29.55 in 10.0 mi NE 11.5 mph - N/A   Partly Cloudy
1:53 AM 43.0 °F 36.4 °F 33.1 °F 68% 29.49 in 10.0 mi NNE 12.7 mph - N/A   Overcast
2:53 AM 43.0 °F 35.7 °F 33.1 °F 68% 29.41 in 10.0 mi NNE 15.0 mph - N/A   Overcast
3:53 AM 43.0 °F 34.5 °F 34.0 °F 71% 29.32 in 10.0 mi NE 19.6 mph 27.6 mph 0.00 in Rain Light Rain
4:53 AM 41.0 °F 31.6 °F 35.1 °F 79% 29.26 in 10.0 mi NNE 20.7 mph - 0.00 in Rain Light Rain
5:53 AM 41.0 °F 31.6 °F 35.1 °F 79% 29.20 in 10.0 mi NNE 20.7 mph - 0.01 in   Overcast
6:53 AM 41.0 °F 32.8 °F 36.0 °F 82% 29.15 in 10.0 mi NNE 16.1 mph - 0.00 in   Overcast
7:53 AM 42.1 °F 33.3 °F 35.1 °F 76% 29.10 in 10.0 mi NE 19.6 mph - 0.00 in   Overcast
10:53 AM 45.0 °F 38.5 °F 36.0 °F 71% 29.09 in 10.0 mi East 13.8 mph - N/A   Mostly Cloudy
11:53 AM 46.9 °F - 35.1 °F 63% 29.10 in 10.0 mi East 17.3 mph - N/A   Scattered Clouds
12:53 PM 50.0 °F - 35.1 °F 57% 29.09 in 10.0 mi East 13.8 mph - N/A   Partly Cloudy
1:53 PM 48.9 °F - 35.1 °F 59% 29.08 in 10.0 mi East 13.8 mph - N/A   Clear
2:53 PM 48.9 °F - 36.0 °F 61% 29.07 in 10.0 mi East 15.0 mph 21.9 mph N/A   Partly Cloudy
3:53 PM 48.9 °F - 36.0 °F 61% 29.07 in 10.0 mi East 12.7 mph - 0.00 in   Mostly Cloudy
4:53 PM 48.9 °F - 36.0 °F 61% 29.06 in 10.0 mi East 9.2 mph - N/A   Mostly Cloudy
5:53 PM 48.0 °F - 36.0 °F 63% 29.07 in 10.0 mi East 11.5 mph - 0.00 in Rain Light Rain
6:53 PM 46.0 °F 42.5 °F 37.0 °F 71% 29.08 in 10.0 mi East 6.9 mph - 0.00 in   Overcast
8:53 PM 43.0 °F 41.3 °F 37.0 °F 80% 29.12 in 10.0 mi ENE 3.5 mph - 0.00 in   Mostly Cloudy
9:53 PM 44.1 °F 40.8 °F 37.0 °F 76% 29.14 in 10.0 mi ESE 5.8 mph - 0.00 in Rain Light Rain
10:53 PM 43.0 °F 40.3 °F 39.0 °F 86% 29.17 in 10.0 mi ESE 4.6 mph - 0.05 in Rain Light Rain
11:53 PM 43.0 °F - 39.0 °F 86% 29.19 in 10.0 mi Calm Calm - 0.01 in Rain Light Rain